Flag for Belize Weather past 2 weeks in Belmopan, Belize

Now
84 °F

Passing clouds.


Feels Like: 94 °F
Forecast: 76 / 92 °F
Wind: 12 mph from East

Location: Belize / Phillip Goldston Intl. Airport

Current Time: Jul 28, 2015 at 11:10:00 PM

Latest Report: Jul 28, 2015 at 9:00 PM


Visibility: N/A

Pressure: 29.97 "Hg

Humidity: 79%

Dew point: 77 °F

Location of BelmopanLocation

Historic Weather in Belmopan — Graph

°F

Belmopan temperature yesterday

Maximum temperature yesterday: 90 °F (at 12:00 PM)
Minimum temperature yesterday: 81 °F (at 5:00 AM)
Average temperature yesterday: 87 °F

Past Weeks' High & Low Weather Summary

 TemperatureHumidityPressure
High90 °F (Jul 15, 1:00 PM)94% (Jul 14, 5:00 AM)32.52 "Hg (Jul 14, 5:00 AM)
Low77 °F (Jul 14, 5:00 AM)62% (Jul 20, 1:00 PM)29.89 "Hg (Jul 15, 5:00 PM)
Average85 °F77%29.97 "Hg
* Reported Jul 14 5:00 AM — Jul 28 9:00 PM, Belmopan, Weather by CustomWeather, © 2015

Note: Actual official high and low records may vary slightly from our data, if they occured in-between our weather recording intervals... More about our weather records

Advertising

Belmopan weather history for previous 24 hours

 ConditionsComfort  
Time TempWeatherWind HumidityBarometerVisibility
9:00 PM
Tue, Jul 28
84 °FPassing clouds.12 mph79%29.97 "HgN/A
8:00 PM84 °FPassing clouds.10 mph79%29.96 "HgN/A
7:00 PM84 °FPassing clouds.9 mph74%29.93 "HgN/A
6:00 PM84 °FPassing clouds.8 mph79%29.93 "HgN/A
5:00 PM86 °FPassing clouds.9 mph75%29.93 "HgN/A
4:00 PM88 °FScattered clouds.12 mph70%29.92 "HgN/A
3:00 PM86 °FScattered clouds.13 mph75%29.93 "HgN/A
2:00 PM88 °FScattered clouds.14 mph75%29.92 "HgN/A
1:00 PM86 °FScattered clouds.10 mph79%29.93 "HgN/A
12:00 PM86 °FScattered showers. Scattered clouds.13 mph79%29.95 "HgN/A
11:00 AM82 °FScattered clouds.5 mph89%29.96 "HgN/A
10:00 AM82 °FScattered clouds.6 mph94%29.97 "HgN/A
9:00 AM86 °FScattered clouds.6 mph79%29.97 "HgN/A
8:00 AM84 °FScattered clouds.6 mph84%29.96 "HgN/A
7:00 AM84 °FScattered clouds.6 mph79%29.94 "HgN/A
6:00 AM82 °FPassing clouds.6 mph84%29.92 "HgN/A
5:00 AM81 °FPassing clouds.6 mph89%29.90 "HgN/A
Weather by CustomWeather, © 2015

See weather overviewHow to use our weather pages